QPF
0.09 0.06 0.07 0.13 0.12 0.08 0.05 0.04 0.03 0.03 0.03 0.03 0.03 0.03 0.04 0.03 0.04 0.04 0.04 0.05 0.07 0.08 0.08 0.10 0.10 0.08 0.08 0.08 0.07 0.06 0.06 0.07 0.06 0.04 0.03 0.02 0.02 0.02 0.03 0.02 0.02 0.02 0.02
0.07 0.06 0.09 0.15 0.11 0.06 0.04 0.03 0.04 0.04 0.04 0.04 0.03 0.03 0.04 0.03 0.04 0.05 0.05 0.04 0.07 0.08 0.10 0.12 0.12 0.11 0.10 0.08 0.07 0.06 0.07 0.08 0.06 0.05 0.05 0.04 0.04 0.04 0.05 0.03 0.03 0.03 0.02
0.09 0.08 0.11 0.15 0.10 0.06 0.06 0.05 0.06 0.06 0.05 0.04 0.03 0.02 0.04 0.05 0.06 0.05 0.05 0.05 0.04 0.07 0.09 0.11 0.10 0.10 0.11 0.11 0.10 0.08 0.07 0.07 0.06 0.07 0.07 0.06 0.05 0.04 0.04 0.03 0.02 0.02 0.01
0.12 0.12 0.13 0.14 0.10 0.08 0.08 0.09 0.09 0.08 0.06 0.05 0.04 0.03 0.04 0.04 0.05 0.04 0.07 0.05 0.04 0.04 0.06 0.10 0.10 0.09 0.13 0.15 0.16 0.14 0.11 0.08 0.07 0.06 0.06 0.04 0.04 0.04 0.04 0.04 0.02 0.01 0.01
0.14 0.15 0.15 0.13 0.10 0.08 0.08 0.08 0.07 0.05 0.04 0.03 0.03 0.05 0.06 0.05 0.05 0.04 0.06 0.05 0.05 0.04 0.04 0.07 0.11 0.11 0.11 0.20 0.27 0.20 0.14 0.12 0.09 0.07 0.05 0.04 0.04 0.05 0.04 0.05 0.05 0.03 0.02
0.13 0.13 0.15 0.16 0.13 0.09 0.07 0.05 0.04 0.03 0.04 0.03 0.03 0.05 0.05 0.04 0.05 0.06 0.06 0.04 0.04 0.04 0.06 0.07 0.08 0.08 0.09 0.12 0.16 0.13 0.13 0.13 0.11 0.09 0.08 0.08 0.08 0.06 0.05 0.05 0.06 0.05 0.04
0.10 0.12 0.12 0.15 0.13 0.08 0.06 0.04 0.04 0.03 0.03 0.02 0.03 0.03 0.02 0.03 0.03 0.04 0.05 0.05 0.05 0.04 0.05 0.07 0.06 0.05 0.05 0.06 0.07 0.07 0.09 0.10 0.10 0.10 0.12 0.13 0.11 0.07 0.06 0.06 0.06 0.06 0.06
0.09 0.11 0.12 0.09 0.08 0.07 0.06 0.05 0.05 0.03 0.02 0.02 0.03 0.03 0.02 0.02 0.02 0.02 0.03 0.05 0.06 0.05 0.05 0.06 0.05 0.05 0.04 0.03 0.03 0.04 0.06 0.09 0.11 0.11 0.12 0.10 0.09 0.09 0.11 0.12 0.12 0.09 0.07
0.06 0.07 0.06 0.05 0.04 0.04 0.05 0.05 0.04 0.02 0.02 0.02 0.02 0.02 0.01 0.01 0.02 0.01 0.02 0.04 0.07 0.06 0.07 0.06 0.06 0.07 0.05 0.04 0.03 0.03 0.05 0.08 0.10 0.12 0.12 0.11 0.10 0.10 0.11 0.12 0.12 0.10 0.08
0.03 0.03 0.05 0.03 0.02 0.02 0.03 0.04 0.03 0.02 0.02 0.01 0.01 0.02 0.02 0.02 0.02 0.02 0.03 0.04 0.06 0.07 0.07 0.07 0.09 0.10 0.08 0.06 0.05 0.05 0.06 0.07 0.07 0.08 0.09 0.10 0.12 0.14 0.16 0.18 0.16 0.14 0.12
0.04 0.05 0.07 0.05 0.04 0.02 0.02 0.03 0.03 0.03 0.02 0.02 0.02 0.03 0.03 0.03 0.03 0.02 0.03 0.05 0.05 0.06 0.07 0.08 0.10 0.09 0.06 0.05 0.05 0.07 0.08 0.07 0.06 0.06 0.07 0.10 0.11 0.14 0.16 0.17 0.16 0.16 0.16
0.04 0.04 0.04 0.03 0.03 0.03 0.03 0.04 0.04 0.04 0.03 0.03 0.03 0.03 0.04 0.05 0.05 0.03 0.03 0.03 0.04 0.04 0.05 0.05 0.06 0.06 0.04 0.03 0.06 0.07 0.07 0.08 0.08 0.07 0.06 0.07 0.08 0.08 0.10 0.10 0.11 0.12 0.14
0.04 0.03 0.03 0.04 0.04 0.03 0.04 0.05 0.05 0.04 0.04 0.04 0.04 0.05 0.06 0.07 0.07 0.05 0.03 0.03 0.03 0.03 0.04 0.05 0.05 0.05 0.04 0.04 0.04 0.06 0.09 0.11 0.10 0.10 0.09 0.07 0.07 0.07 0.08 0.10 0.10 0.10 0.11
0.03 0.04 0.04 0.04 0.04 0.04 0.04 0.05 0.05 0.06 0.04 0.03 0.04 0.05 0.07 0.07 0.07 0.05 0.05 0.05 0.04 0.04 0.04 0.05 0.07 0.07 0.06 0.07 0.08 0.08 0.08 0.10 0.10 0.09 0.09 0.08 0.08 0.08 0.07 0.07 0.07 0.08 0.09
0.03 0.04 0.03 0.02 0.03 0.03 0.04 0.05 0.06 0.05 0.03 0.04 0.06 0.07 0.06 0.06 0.05 0.05 0.07 0.07 0.06 0.05 0.06 0.07 0.08 0.10 0.11 0.10 0.10 0.08 0.09 0.12 0.12 0.10 0.09 0.08 0.07 0.06 0.06 0.06 0.05 0.05 0.05
0.03 0.03 0.03 0.02 0.02 0.03 0.04 0.05 0.04 0.04 0.04 0.04 0.07 0.10 0.10 0.08 0.07 0.06 0.07 0.07 0.08 0.08 0.09 0.09 0.11 0.12 0.12 0.11 0.11 0.11 0.11 0.12 0.13 0.12 0.10 0.08 0.07 0.07 0.07 0.07 0.06 0.05 0.05
0.02 0.02 0.01 0.01 0.02 0.02 0.03 0.03 0.04 0.04 0.04 0.03 0.04 0.05 0.07 0.09 0.08 0.07 0.06 0.07 0.08 0.09 0.11 0.13 0.15 0.13 0.12 0.12 0.11 0.09 0.07 0.07 0.07 0.08 0.07 0.08 0.07 0.06 0.06 0.06 0.05 0.05 0.05
0.02 0.02 0.01 0.02 0.02 0.02 0.02 0.03 0.04 0.06 0.05 0.03 0.03 0.03 0.04 0.06 0.05 0.06 0.07 0.07 0.09 0.12 0.13 0.13 0.12 0.11 0.10 0.09 0.08 0.05 0.04 0.03 0.03 0.03 0.03 0.03 0.04 0.04 0.04 0.04 0.04 0.05 0.05
0.02 0.02 0.03 0.02 0.03 0.02 0.03 0.04 0.05 0.05 0.04 0.03 0.02 0.02 0.03 0.04 0.04 0.05 0.06 0.06 0.08 0.11 0.11 0.10 0.10 0.07 0.06 0.06 0.05 0.04 0.03 0.02 0.02 0.03 0.03 0.03 0.03 0.03 0.03 0.03 0.03 0.03 0.03
0.02 0.02 0.03 0.05 0.06 0.04 0.02 0.03 0.06 0.07 0.04 0.03 0.03 0.02 0.02 0.03 0.04 0.05 0.06 0.08 0.08 0.06 0.06 0.05 0.05 0.04 0.04 0.05 0.04 0.04 0.04 0.04 0.03 0.03 0.03 0.03 0.04 0.03 0.03 0.03 0.03 0.03 0.02
0.03 0.04 0.05 0.05 0.05 0.04 0.04 0.04 0.04 0.03 0.02 0.02 0.01 0.01 0.02 0.03 0.05 0.05 0.04 0.05 0.06 0.03 0.03 0.03 0.03 0.03 0.03 0.03 0.03 0.03 0.03 0.04 0.03 0.02 0.02 0.03 0.02 0.01 0.01 0.00 0.01 0.01 0.01
0.03 0.04 0.04 0.04 0.03 0.03 0.04 0.04 0.02 0.02 0.02 0.02 0.02 0.02 0.02 0.02 0.03 0.04 0.04 0.04 0.04 0.02 0.02 0.02 0.03 0.03 0.03 0.02 0.02 0.02 0.02 0.02 0.02 0.02 0.01 0.01 0.01 0.00 0.00 0.00 0.00 0.01 0.01
0.05 0.05 0.04 0.04 0.04 0.04 0.04 0.03 0.01 0.01 0.01 0.01 0.01 0.01 0.01 0.01 0.02 0.03 0.04 0.03 0.02 0.02 0.03 0.03 0.02 0.02 0.01 0.01 0.01 0.02 0.02 0.02 0.02 0.02 0.01 0.01 0.01 0.00 0.00 0.00 0.00 0.00 0.00
0.07 0.06 0.05 0.06 0.05 0.03 0.03 0.02 0.01 0.01 0.02 0.02 0.02 0.02 0.02 0.02 0.03 0.03 0.03 0.02 0.01 0.01 0.01 0.01 0.01 0.01 0.01 0.01 0.02 0.01 0.02 0.02 0.02 0.02 0.01 0.01 0.01 0.01 0.00 0.00 0.00 0.00 0.00
0.06 0.05 0.05 0.04 0.03 0.02 0.02 0.02 0.02 0.03 0.03 0.03 0.03 0.03 0.03 0.03 0.03 0.03 0.02 0.02 0.01 0.01 0.01 0.02 0.02 0.02 0.03 0.02 0.02 0.01 0.01 0.02 0.02 0.02 0.02 0.02 0.02 0.01 0.00 0.00 0.00 0.00 0.00
0.05 0.05 0.04 0.03 0.02 0.02 0.03 0.04 0.04 0.05 0.04 0.03 0.03 0.03 0.03 0.04 0.04 0.04 0.04 0.03 0.03 0.03 0.02 0.02 0.02 0.03 0.02 0.02 0.01 0.01 0.00 0.01 0.01 0.01 0.01 0.01 0.01 0.00 0.00 0.00 0.00 0.01 0.01
MSLP
1015.49 1015.54 1015.51 1015.42 1015.29 1015.17 1015.07 1015.04 1015.07 1015.15 1015.29 1015.45 1015.63 1015.81 1015.99 1016.18 1016.39 1016.63 1016.89 1017.17 1017.47 1017.76 1018.03 1018.26 1018.47 1018.64 1018.80 1018.95 1019.12 1019.31 1019.52 1019.75 1019.98 1020.22 1020.44 1020.63 1020.80 1020.93 1021.04 1021.14 1021.22 1021.30 1021.37
1015.60 1015.66 1015.63 1015.55 1015.43 1015.32 1015.23 1015.20 1015.24 1015.34 1015.48 1015.65 1015.82 1016.00 1016.16 1016.33 1016.50 1016.70 1016.93 1017.18 1017.46 1017.75 1018.03 1018.29 1018.52 1018.73 1018.91 1019.07 1019.24 1019.41 1019.59 1019.79 1020.00 1020.21 1020.40 1020.58 1020.74 1020.86 1020.96 1021.04 1021.11 1021.16 1021.22
1015.57 1015.64 1015.64 1015.58 1015.50 1015.42 1015.37 1015.37 1015.43 1015.55 1015.70 1015.88 1016.05 1016.21 1016.35 1016.48 1016.60 1016.75 1016.92 1017.13 1017.37 1017.64 1017.92 1018.20 1018.46 1018.69 1018.90 1019.08 1019.24 1019.40 1019.56 1019.72 1019.89 1020.06 1020.22 1020.38 1020.52 1020.64 1020.73 1020.81 1020.87 1020.92 1020.96
1015.44 1015.53 1015.56 1015.56 1015.54 1015.52 1015.52 1015.57 1015.66 1015.79 1015.96 1016.13 1016.29 1016.43 1016.54 1016.62 1016.70 1016.78 1016.89 1017.04 1017.23 1017.47 1017.73 1018.01 1018.28 1018.53 1018.75 1018.95 1019.11 1019.25 1019.38 1019.51 1019.63 1019.76 1019.90 1020.03 1020.16 1020.27 1020.37 1020.46 1020.53 1020.59 1020.63
1015.28 1015.37 1015.45 1015.51 1015.56 1015.62 1015.69 1015.78 1015.90 1016.06 1016.22 1016.38 1016.53 1016.65 1016.72 1016.77 1016.80 1016.83 1016.88 1016.97 1017.11 1017.30 1017.52 1017.77 1018.04 1018.29 1018.51 1018.70 1018.86 1018.98 1019.08 1019.17 1019.25 1019.35 1019.45 1019.57 1019.69 1019.81 1019.93 1020.04 1020.13 1020.21 1020.27
1015.11 1015.22 1015.34 1015.47 1015.60 1015.73 1015.86 1016.00 1016.15 1016.31 1016.47 1016.61 1016.74 1016.84 1016.90 1016.92 1016.93 1016.92 1016.93 1016.97 1017.05 1017.18 1017.36 1017.57 1017.80 1018.03 1018.24 1018.41 1018.54 1018.64 1018.71 1018.76 1018.82 1018.89 1018.97 1019.08 1019.21 1019.35 1019.49 1019.62 1019.75 1019.85 1019.94
1014.98 1015.10 1015.26 1015.44 1015.64 1015.83 1016.02 1016.19 1016.36 1016.51 1016.66 1016.79 1016.90 1016.99 1017.04 1017.07 1017.07 1017.06 1017.05 1017.05 1017.10 1017.18 1017.31 1017.47 1017.65 1017.84 1018.01 1018.15 1018.25 1018.32 1018.36 1018.39 1018.42 1018.48 1018.55 1018.66 1018.80 1018.96 1019.13 1019.30 1019.46 1019.60 1019.71
1014.88 1015.00 1015.19 1015.42 1015.67 1015.91 1016.13 1016.32 1016.49 1016.63 1016.76 1016.88 1016.98 1017.07 1017.15 1017.20 1017.22 1017.23 1017.24 1017.24 1017.26 1017.31 1017.39 1017.51 1017.64 1017.77 1017.90 1018.00 1018.07 1018.11 1018.13 1018.14 1018.16 1018.21 1018.29 1018.41 1018.56 1018.75 1018.95 1019.15 1019.33 1019.49 1019.62
1014.79 1014.91 1015.11 1015.36 1015.64 1015.91 1016.14 1016.34 1016.50 1016.62 1016.74 1016.85 1016.96 1017.07 1017.18 1017.29 1017.37 1017.43 1017.47 1017.50 1017.53 1017.57 1017.62 1017.70 1017.78 1017.88 1017.96 1018.03 1018.07 1018.09 1018.10 1018.10 1018.11 1018.16 1018.24 1018.37 1018.55 1018.75 1018.97 1019.19 1019.39 1019.57 1019.71
1014.68 1014.78 1014.97 1015.23 1015.51 1015.78 1016.01 1016.20 1016.35 1016.46 1016.57 1016.68 1016.81 1016.96 1017.13 1017.30 1017.45 1017.59 1017.70 1017.78 1017.84 1017.89 1017.95 1018.01 1018.08 1018.14 1018.21 1018.26 1018.29 1018.29 1018.29 1018.29 1018.31 1018.35 1018.44 1018.58 1018.76 1018.98 1019.21 1019.44 1019.65 1019.83 1019.97
1014.51 1014.58 1014.75 1014.99 1015.25 1015.51 1015.73 1015.90 1016.03 1016.14 1016.24 1016.37 1016.53 1016.73 1016.96 1017.21 1017.44 1017.66 1017.84 1017.99 1018.11 1018.20 1018.28 1018.36 1018.44 1018.52 1018.59 1018.65 1018.68 1018.69 1018.69 1018.70 1018.71 1018.77 1018.86 1019.00 1019.18 1019.40 1019.63 1019.85 1020.06 1020.24 1020.38
1014.27 1014.31 1014.45 1014.64 1014.87 1015.08 1015.27 1015.43 1015.55 1015.66 1015.78 1015.93 1016.13 1016.38 1016.68 1016.99 1017.30 1017.60 1017.86 1018.08 1018.26 1018.41 1018.55 1018.69 1018.81 1018.93 1019.04 1019.13 1019.19 1019.23 1019.25 1019.26 1019.28 1019.33 1019.42 1019.56 1019.73 1019.94 1020.17 1020.39 1020.59 1020.75 1020.89
1013.99 1013.98 1014.06 1014.20 1014.37 1014.54 1014.69 1014.82 1014.94 1015.05 1015.20 1015.38 1015.63 1015.93 1016.28 1016.65 1017.02 1017.38 1017.70 1017.99 1018.24 1018.48 1018.69 1018.90 1019.11 1019.30 1019.48 1019.63 1019.74 1019.82 1019.86 1019.89 1019.92 1019.97 1020.05 1020.18 1020.35 1020.55 1020.76 1020.97 1021.16 1021.32 1021.45
1013.68 1013.63 1013.65 1013.72 1013.82 1013.93 1014.04 1014.15 1014.26 1014.39 1014.57 1014.79 1015.08 1015.42 1015.81 1016.22 1016.63 1017.02 1017.39 1017.73 1018.05 1018.36 1018.67 1018.97 1019.28 1019.57 1019.84 1020.07 1020.25 1020.38 1020.46 1020.51 1020.55 1020.60 1020.68 1020.80 1020.96 1021.15 1021.35 1021.56 1021.75 1021.90 1022.02
1013.40 1013.31 1013.26 1013.25 1013.28 1013.33 1013.40 1013.49 1013.60 1013.75 1013.95 1014.22 1014.54 1014.91 1015.32 1015.75 1016.17 1016.58 1016.97 1017.35 1017.72 1018.10 1018.49 1018.90 1019.31 1019.71 1020.09 1020.41 1020.67 1020.86 1020.98 1021.06 1021.11 1021.17 1021.24 1021.36 1021.51 1021.69 1021.90 1022.10 1022.29 1022.44 1022.55
1013.20 1013.07 1012.97 1012.89 1012.84 1012.83 1012.86 1012.92 1013.04 1013.21 1013.45 1013.74 1014.10 1014.49 1014.91 1015.33 1015.75 1016.15 1016.54 1016.93 1017.33 1017.76 1018.23 1018.73 1019.24 1019.75 1020.22 1020.64 1020.97 1021.22 1021.39 1021.50 1021.57 1021.63 1021.71 1021.82 1021.97 1022.16 1022.36 1022.57 1022.75 1022.90 1023.01
1013.14 1012.99 1012.83 1012.70 1012.59 1012.53 1012.51 1012.56 1012.68 1012.87 1013.13 1013.46 1013.83 1014.23 1014.64 1015.05 1015.44 1015.81 1016.18 1016.57 1016.99 1017.45 1017.97 1018.53 1019.13 1019.72 1020.28 1020.77 1021.17 1021.47 1021.68 1021.81 1021.90 1021.97 1022.05 1022.17 1022.33 1022.52 1022.73 1022.94 1023.12 1023.26 1023.36
1013.23 1013.07 1012.90 1012.72 1012.58 1012.47 1012.43 1012.46 1012.58 1012.78 1013.06 1013.41 1013.79 1014.19 1014.59 1014.97 1015.33 1015.67 1016.01 1016.37 1016.78 1017.26 1017.80 1018.40 1019.05 1019.69 1020.30 1020.84 1021.28 1021.62 1021.86 1022.01 1022.11 1022.20 1022.29 1022.42 1022.58 1022.78 1022.99 1023.19 1023.36 1023.49 1023.57
1013.47 1013.34 1013.17 1012.99 1012.83 1012.70 1012.64 1012.67 1012.78 1012.99 1013.28 1013.63 1014.01 1014.40 1014.78 1015.13 1015.45 1015.75 1016.05 1016.39 1016.78 1017.24 1017.78 1018.39 1019.05 1019.71 1020.34 1020.90 1021.35 1021.70 1021.95 1022.12 1022.24 1022.33 1022.44 1022.57 1022.74 1022.93 1023.14 1023.32 1023.48 1023.58 1023.63
1013.84 1013.77 1013.64 1013.49 1013.33 1013.21 1013.14 1013.16 1013.27 1013.48 1013.76 1014.10 1014.48 1014.85 1015.20 1015.52 1015.81 1016.07 1016.34 1016.64 1016.99 1017.43 1017.94 1018.53 1019.17 1019.81 1020.42 1020.96 1021.41 1021.75 1022.00 1022.17 1022.29 1022.39 1022.51 1022.65 1022.81 1023.00 1023.19 1023.35 1023.47 1023.54 1023.55
1014.30 1014.31 1014.26 1014.16 1014.04 1013.94 1013.89 1013.90 1014.01 1014.19 1014.46 1014.78 1015.13 1015.48 1015.81 1016.10 1016.35 1016.58 1016.82 1017.08 1017.40 1017.80 1018.27 1018.81 1019.40 1019.99 1020.55 1021.05 1021.46 1021.78 1022.01 1022.17 1022.30 1022.40 1022.52 1022.66 1022.82 1022.99 1023.16 1023.29 1023.37 1023.40 1023.37
1014.79 1014.91 1014.95 1014.93 1014.88 1014.82 1014.79 1014.81 1014.90 1015.07 1015.30 1015.59 1015.91 1016.23 1016.52 1016.79 1017.01 1017.22 1017.43 1017.66 1017.95 1018.30 1018.72 1019.19 1019.71 1020.24 1020.73 1021.17 1021.53 1021.81 1022.02 1022.17 1022.28 1022.39 1022.51 1022.64 1022.79 1022.95 1023.08 1023.17 1023.22 1023.20 1023.13
1015.24 1015.49 1015.64 1015.72 1015.75 1015.75 1015.75 1015.78 1015.86 1016.00 1016.20 1016.44 1016.72 1017.00 1017.26 1017.50 1017.71 1017.90 1018.09 1018.30 1018.55 1018.86 1019.22 1019.63 1020.08 1020.52 1020.94 1021.31 1021.61 1021.85 1022.03 1022.17 1022.28 1022.38 1022.50 1022.63 1022.76 1022.89 1022.99 1023.05 1023.05 1023.00 1022.89
1015.62 1015.98 1016.26 1016.45 1016.56 1016.62 1016.66 1016.70 1016.77 1016.88 1017.05 1017.25 1017.48 1017.73 1017.96 1018.18 1018.38 1018.56 1018.74 1018.93 1019.16 1019.42 1019.73 1020.08 1020.45 1020.82 1021.16 1021.47 1021.72 1021.92 1022.07 1022.19 1022.29 1022.40 1022.51 1022.63 1022.75 1022.85 1022.92 1022.95 1022.92 1022.83 1022.70
1015.88 1016.35 1016.74 1017.03 1017.22 1017.35 1017.43 1017.49 1017.56 1017.65 1017.79 1017.95 1018.15 1018.36 1018.57 1018.78 1018.97 1019.15 1019.32 1019.51 1019.71 1019.95 1020.21 1020.51 1020.81 1021.11 1021.39 1021.64 1021.84 1022.01 1022.14 1022.25 1022.35 1022.46 1022.56 1022.67 1022.77 1022.85 1022.89 1022.89 1022.83 1022.73 1022.58
1016.00 1016.57 1017.04 1017.42 1017.70 1017.89 1018.02 1018.10 1018.18 1018.27 1018.38 1018.53 1018.70 1018.89 1019.09 1019.29 1019.48 1019.66 1019.83 1020.01 1020.21 1020.42 1020.65 1020.89 1021.15 1021.39 1021.62 1021.82 1021.99 1022.13 1022.25 1022.36 1022.45 1022.55 1022.65 1022.75 1022.83 1022.88 1022.90 1022.88 1022.80 1022.68 1022.53
Thickness
5750 5750 5749 5750 5749 5749 5749 5748 5748 5748 5748 5747 5746 5746 5745 5744 5743 5742 5741 5740 5739 5738 5737 5736 5734 5733 5731 5730 5728 5727 5725 5724 5722 5721 5719 5718 5717 5716 5715 5714 5713 5712 5711
5751 5750 5749 5749 5748 5748 5748 5747 5747 5747 5746 5746 5746 5745 5745 5744 5743 5742 5742 5741 5740 5739 5737 5736 5735 5734 5733 5731 5730 5728 5727 5725 5723 5722 5720 5719 5717 5716 5715 5714 5713 5712 5710
5752 5751 5749 5749 5748 5748 5747 5746 5746 5745 5745 5745 5745 5745 5744 5743 5743 5742 5741 5741 5740 5739 5737 5736 5735 5734 5733 5732 5731 5729 5728 5726 5724 5723 5721 5719 5718 5717 5715 5714 5713 5712 5710
5753 5751 5750 5749 5748 5748 5747 5746 5744 5743 5743 5743 5743 5743 5743 5742 5742 5742 5741 5740 5739 5738 5737 5736 5735 5734 5733 5732 5731 5729 5728 5727 5725 5724 5722 5720 5719 5717 5715 5714 5712 5711 5710
5754 5752 5751 5750 5749 5748 5747 5746 5744 5743 5741 5741 5741 5742 5742 5741 5741 5741 5740 5739 5738 5737 5736 5735 5734 5733 5732 5732 5731 5729 5729 5727 5726 5724 5722 5721 5719 5717 5716 5714 5713 5711 5710
5754 5753 5751 5750 5749 5748 5746 5745 5743 5742 5741 5741 5741 5740 5740 5740 5740 5740 5739 5738 5737 5736 5735 5734 5733 5732 5731 5731 5730 5729 5729 5728 5726 5725 5723 5722 5720 5718 5716 5715 5713 5712 5710
5754 5753 5751 5750 5749 5748 5746 5745 5743 5741 5740 5740 5738 5736 5737 5738 5738 5738 5737 5737 5736 5735 5734 5732 5731 5731 5730 5730 5729 5729 5728 5728 5727 5725 5724 5723 5721 5718 5717 5715 5714 5712 5710
5754 5754 5752 5750 5749 5748 5746 5745 5743 5740 5739 5739 5736 5731 5729 5731 5734 5737 5736 5735 5735 5733 5732 5731 5730 5729 5729 5728 5728 5728 5728 5727 5726 5725 5724 5722 5721 5718 5717 5716 5714 5712 5710
5754 5753 5752 5750 5749 5748 5746 5745 5744 5741 5738 5738 5738 5733 5727 5724 5727 5731 5733 5733 5732 5731 5731 5730 5729 5728 5727 5727 5727 5727 5726 5726 5725 5724 5722 5721 5720 5718 5717 5715 5714 5712 5710
5754 5752 5751 5750 5748 5747 5746 5745 5744 5742 5740 5737 5737 5736 5735 5732 5726 5724 5727 5729 5729 5728 5728 5728 5726 5725 5725 5725 5724 5724 5723 5723 5722 5721 5720 5719 5717 5716 5715 5714 5712 5711 5709
5753 5751 5750 5749 5747 5746 5745 5744 5744 5742 5741 5738 5736 5735 5733 5731 5729 5724 5720 5722 5724 5725 5725 5724 5723 5722 5722 5722 5721 5721 5720 5719 5718 5717 5716 5715 5713 5712 5711 5710 5709 5708 5706
5751 5750 5749 5748 5746 5745 5744 5743 5743 5742 5740 5739 5737 5735 5733 5730 5727 5724 5720 5719 5718 5719 5720 5720 5719 5718 5718 5717 5716 5716 5716 5714 5713 5712 5711 5709 5708 5707 5706 5705 5704 5703 5702
5749 5749 5748 5746 5745 5744 5743 5742 5742 5740 5739 5737 5736 5735 5733 5732 5730 5726 5722 5718 5715 5715 5715 5715 5714 5714 5713 5711 5711 5710 5710 5709 5708 5707 5705 5704 5702 5701 5700 5699 5698 5697 5696
5750 5748 5747 5746 5744 5743 5742 5741 5739 5738 5737 5735 5734 5733 5732 5731 5729 5726 5723 5718 5713 5710 5709 5709 5709 5708 5707 5705 5704 5704 5703 5702 5701 5700 5698 5697 5695 5694 5693 5692 5691 5690 5688
5750 5748 5746 5744 5743 5742 5740 5739 5737 5736 5734 5733 5732 5731 5730 5729 5727 5725 5723 5720 5714 5707 5703 5703 5702 5702 5701 5699 5697 5696 5695 5694 5693 5692 5690 5688 5687 5685 5684 5683 5682 5681 5680
5749 5746 5744 5743 5741 5740 5738 5736 5734 5732 5731 5729 5728 5727 5725 5725 5723 5722 5720 5718 5715 5709 5701 5699 5697 5695 5694 5692 5690 5689 5687 5685 5684 5683 5681 5679 5678 5676 5675 5674 5672 5671 5670
5747 5744 5742 5740 5738 5736 5735 5732 5730 5729 5727 5725 5724 5722 5721 5720 5718 5717 5715 5713 5711 5707 5699 5695 5691 5688 5686 5684 5682 5680 5678 5676 5675 5673 5671 5670 5668 5667 5665 5663 5662 5661 5660
5745 5742 5739 5737 5735 5732 5730 5728 5726 5724 5722 5720 5719 5718 5716 5715 5713 5711 5709 5707 5705 5702 5697 5689 5684 5681 5678 5676 5674 5672 5669 5667 5666 5663 5661 5659 5657 5656 5654 5652 5650 5649 5648
5741 5739 5736 5733 5730 5728 5726 5724 5722 5720 5717 5715 5714 5712 5711 5710 5707 5705 5703 5701 5699 5696 5692 5686 5678 5674 5671 5669 5665 5663 5661 5658 5656 5653 5650 5648 5646 5644 5642 5640 5639 5637 5635
5738 5734 5732 5729 5726 5724 5721 5719 5717 5714 5712 5710 5708 5707 5706 5704 5702 5700 5697 5694 5691 5688 5683 5678 5672 5668 5664 5660 5657 5654 5650 5648 5645 5643 5640 5638 5635 5632 5630 5628 5627 5625 5623
5733 5730 5727 5724 5721 5719 5716 5713 5711 5708 5706 5703 5702 5701 5699 5697 5696 5694 5691 5687 5684 5680 5676 5671 5665 5661 5656 5652 5649 5646 5642 5638 5635 5632 5630 5627 5624 5622 5619 5617 5615 5613 5611
5728 5725 5722 5719 5716 5713 5710 5707 5705 5702 5699 5697 5694 5692 5691 5689 5687 5685 5683 5680 5678 5674 5669 5664 5659 5655 5649 5646 5642 5638 5634 5631 5627 5623 5621 5617 5614 5611 5608 5606 5603 5601 5599
5722 5719 5715 5713 5710 5706 5704 5702 5699 5696 5693 5689 5687 5685 5683 5681 5679 5677 5674 5672 5668 5665 5663 5659 5653 5648 5643 5640 5636 5631 5627 5623 5619 5615 5612 5609 5605 5602 5598 5595 5593 5591 5588
5716 5712 5709 5705 5703 5700 5698 5695 5692 5689 5686 5683 5680 5677 5675 5673 5670 5668 5666 5662 5659 5655 5653 5650 5646 5641 5637 5633 5629 5624 5619 5614 5610 5606 5603 5600 5596 5592 5589 5586 5583 5581 5578
5710 5706 5703 5699 5696 5693 5691 5688 5685 5682 5678 5674 5672 5669 5667 5665 5662 5660 5657 5653 5649 5646 5643 5640 5636 5633 5629 5625 5621 5617 5612 5609 5604 5599 5594 5591 5587 5583 5581 5577 5574 5570 5568
5703 5700 5696 5692 5690 5686 5683 5681 5679 5675 5671 5667 5664 5662 5660 5657 5654 5651 5647 5644 5640 5636 5633 5630 5626 5623 5619 5615 5612 5608 5604 5600 5596 5591 5586 5581 5577 5574 5572 5568 5564 5560 5557